Consulta les dades en temps real de l'estació municipal de El Brull
| Hora UTC | 03:40 |
|---|---|
| Temperatura | 8.3 ºC |
| Humitat | 94.2 % |
| Pressió | 1012.7 hPa |
| Pluja | 0.0 mm |
| Velocitat vent | 2.4 km/h |
| Direcció vent | NE |
| Radiació solar | 0.0 W/m² |
| Temperatura (ºC) | Humitat (%) | Pressió (hPa) | Velocitat vent (km/h) | Precipitació (mm) | Radiació solar (W/m²) | |||||||||||||
|---|---|---|---|---|---|---|---|---|---|---|---|---|---|---|---|---|---|---|
| Hora UTC | Aire | Humitat | Pressió | Vel. | Dir. | Vel. Max | Dir. | Intent. màx 5 min. | Rad. Sol. | |||||||||
| 00:10 | 9.2 | 94.8 | 1013.6 | 1.0 | ENE | 2.6 | ESE | 0.0 | 0.0 | |||||||||
| 00:20 | 8.9 | 94.5 | 1013.5 | 1.0 | NNE | 2.6 | NNE | 0.0 | 0.0 | |||||||||
| 00:30 | 8.6 | 94.6 | 1013.4 | 1.3 | N | 5.3 | N | 0.0 | 0.0 | |||||||||
| 00:40 | 8.4 | 94.7 | 1013.3 | 1.9 | N | 3.3 | N | 0.0 | 0.0 | |||||||||
| 00:50 | 8.5 | 95.1 | 1013.2 | 1.3 | E | 2.9 | SSE | 0.0 | 0.0 | |||||||||
| 01:00 | 8.5 | 95.2 | 1013.2 | 4.0 | SE | 7.5 | SE | 0.0 | 0.0 | |||||||||
| 01:10 | 8.5 | 95.2 | 1013.2 | 3.9 | SE | 6.9 | SE | 0.0 | 0.0 | |||||||||
| 01:20 | 8.6 | 95.3 | 1013.0 | 5.3 | SE | 8.8 | SSE | 0.0 | 0.0 | |||||||||
| 01:30 | 8.5 | 95.1 | 1013.0 | 3.5 | SE | 6.0 | SE | 0.0 | 0.0 | |||||||||
| 01:40 | 8.6 | 95.2 | 1013.0 | 2.7 | SE | 5.3 | SSE | 0.0 | 0.0 | |||||||||
| 01:50 | 8.6 | 95.2 | 1013.1 | 2.5 | ESE | 4.9 | SE | 0.0 | 0.0 | |||||||||
| 02:00 | 8.7 | 95.2 | 1013.1 | 2.4 | SE | 4.9 | S | 0.0 | 0.0 | |||||||||
| 02:10 | 8.7 | 95.2 | 1013.1 | 2.1 | ESE | 3.9 | SE | 0.0 | 0.0 | |||||||||
| 02:20 | 8.7 | 95.1 | 1013.1 | 1.0 | SSE | 3.3 | SE | 0.0 | 0.0 | |||||||||
| 02:30 | 8.7 | 95.1 | 1013.2 | 2.3 | SE | 4.5 | SE | 0.0 | 0.0 | |||||||||
| 02:40 | 8.5 | 94.8 | 1013.1 | 2.6 | ESE | 5.4 | ESE | 0.0 | 0.0 | |||||||||
| 02:50 | 8.6 | 95.0 | 1013.1 | 1.5 | SSW | 4.6 | SE | 0.0 | 0.0 | |||||||||
| 03:00 | 8.4 | 94.7 | 1013.1 | 2.8 | ESE | 6.4 | SE | 0.0 | 0.0 | |||||||||
| 03:10 | 8.4 | 94.7 | 1012.9 | 1.4 | E | 4.5 | E | 0.0 | 0.0 | |||||||||
| 03:20 | 8.5 | 94.6 | 1012.8 | 2.2 | ESE | 8.7 | ESE | 0.0 | 0.0 | |||||||||
| 03:30 | 8.4 | 94.4 | 1012.8 | 2.2 | ESE | 5.3 | ESE | 0.0 | 0.0 | |||||||||
| 03:40 | 8.3 | 94.2 | 1012.7 | 2.4 | NE | 5.5 | E | 0.0 | 0.0 | |||||||||
| Màxima | 9.2 | 95.3 | 1013.6 | 5.3 | SE | 8.8 | SSE | 0.0 | 0.0 | |||||||||
| Mínima | 8.3 | 94.2 | 1012.7 | |||||||||||||||
| Total | 0.0 | |||||||||||||||||